Location: Gleizolles
(44.4833°N, 6.7667°E)
Time: 03:08:32
(UTC+00:00)

X-37B - Pass Details

Date: 08 December 2021
Orbit: 334 x 337 km, 45.0° (Epoch: 11 January)

Event Time Altitude Azimuth Distance (km) Brightness Sun altitude
Rises 17:32:57 0° 240° (WSW) 2,097 5.8 -17.1°
Reaches altitude 10° 17:34:59 10° 234° (SW) 1,262 4.2 -17.5°
Enters shadow 17:37:40 45° 162° (SSE) 467 0.9 -17.9°
